Location: Moscow
(55.7500°N, 37.5830°E)
Time: 14:45:57
(UTC+03:00)

Vanguard 1 - Pass Details

Date: 02 December 2021
Orbit: 652 x 3830 km, 34.2° (Epoch: 25 January)

Event Time Altitude Azimuth Distance (km) Brightness Sun altitude
Exits shadow 05:37:10 20° 243° (WSW) 5,526 13.4 -23.8°
Maximum altitude 05:45:50 28° 210° (SSW) 4,406 13.1 -22.6°
Drops below altitude 10° 05:56:40 10° 159° (SSE) 4,631 13.9 -21.1°
Sets 06:00:20 0° 147° (SSE) 5,202 14.4 -20.6°
